Total_Precipitation_Accumulation
0.25 0.24 0.29 0.36 0.38 0.46 0.60 0.78 1.01 0.91 0.70 0.58 0.56 0.53 0.55 0.60 0.53 0.47 0.44 0.42 0.40 0.37 0.36 0.37 0.39 0.48 0.55 0.68 0.84 0.96 1.02 0.98 0.90 0.84 0.74 0.67 0.60 0.53 0.54 0.50 0.49 0.56 0.72 0.90
0.12 0.14 0.19 0.30 0.43 0.56 0.62 0.69 0.71 0.62 0.58 0.44 0.39 0.35 0.36 0.42 0.41 0.40 0.35 0.30 0.27 0.28 0.26 0.28 0.32 0.39 0.40 0.50 0.66 0.77 0.82 0.84 0.87 0.82 0.66 0.58 0.51 0.45 0.42 0.43 0.44 0.47 0.55 0.71
0.12 0.11 0.20 0.42 0.54 0.61 0.60 0.55 0.47 0.43 0.39 0.29 0.26 0.20 0.20 0.27 0.30 0.33 0.31 0.25 0.23 0.22 0.23 0.27 0.35 0.37 0.37 0.44 0.55 0.59 0.63 0.67 0.70 0.67 0.53 0.47 0.38 0.33 0.36 0.37 0.41 0.43 0.49 0.61
0.18 0.17 0.38 0.63 0.52 0.46 0.50 0.39 0.24 0.22 0.22 0.21 0.17 0.13 0.11 0.12 0.14 0.15 0.18 0.18 0.22 0.20 0.19 0.21 0.27 0.34 0.42 0.43 0.43 0.44 0.48 0.51 0.51 0.51 0.46 0.39 0.31 0.30 0.32 0.35 0.40 0.41 0.45 0.50
0.28 0.29 0.45 0.57 0.38 0.35 0.41 0.36 0.18 0.13 0.12 0.10 0.09 0.07 0.05 0.06 0.08 0.09 0.08 0.09 0.12 0.12 0.12 0.13 0.14 0.15 0.17 0.20 0.22 0.25 0.34 0.40 0.44 0.43 0.39 0.34 0.29 0.36 0.42 0.42 0.42 0.41 0.40 0.42
0.36 0.43 0.55 0.41 0.16 0.16 0.28 0.42 0.16 0.08 0.06 0.05 0.05 0.07 0.05 0.05 0.07 0.06 0.04 0.04 0.05 0.08 0.08 0.08 0.07 0.06 0.06 0.07 0.11 0.15 0.21 0.27 0.33 0.37 0.38 0.41 0.49 0.57 0.58 0.54 0.49 0.44 0.40 0.39
0.43 0.62 0.62 0.36 0.14 0.16 0.30 0.43 0.22 0.08 0.04 0.03 0.03 0.03 0.03 0.04 0.05 0.04 0.03 0.02 0.03 0.05 0.06 0.07 0.06 0.05 0.05 0.05 0.04 0.04 0.07 0.12 0.21 0.34 0.40 0.48 0.59 0.61 0.61 0.56 0.46 0.41 0.39 0.37
0.54 0.71 0.78 0.40 0.21 0.24 0.22 0.14 0.11 0.06 0.03 0.02 0.02 0.03 0.03 0.04 0.03 0.03 0.04 0.03 0.03 0.04 0.05 0.07 0.08 0.06 0.06 0.10 0.06 0.04 0.06 0.10 0.15 0.24 0.33 0.46 0.54 0.53 0.53 0.54 0.49 0.44 0.45 0.42
0.54 0.59 0.50 0.30 0.19 0.14 0.10 0.09 0.04 0.02 0.02 0.01 0.02 0.03 0.04 0.04 0.03 0.03 0.03 0.03 0.04 0.05 0.06 0.06 0.07 0.07 0.07 0.06 0.07 0.06 0.06 0.07 0.09 0.15 0.26 0.40 0.43 0.42 0.45 0.48 0.48 0.45 0.42 0.40
0.22 0.16 0.15 0.13 0.10 0.06 0.04 0.04 0.02 0.01 0.01 0.01 0.02 0.02 0.03 0.03 0.03 0.03 0.03 0.03 0.03 0.04 0.04 0.05 0.05 0.05 0.06 0.06 0.06 0.05 0.05 0.05 0.05 0.06 0.08 0.14 0.18 0.22 0.29 0.34 0.35 0.35 0.37 0.40
0.22 0.11 0.06 0.05 0.04 0.03 0.02 0.02 0.01 0.00 0.01 0.01 0.02 0.02 0.02 0.01 0.02 0.03 0.04 0.03 0.03 0.03 0.04 0.04 0.04 0.04 0.04 0.05 0.06 0.07 0.06 0.04 0.04 0.06 0.07 0.07 0.09 0.12 0.15 0.18 0.21 0.27 0.32 0.35
0.20 0.13 0.07 0.04 0.03 0.03 0.02 0.01 0.01 0.01 0.00 0.00 0.01 0.02 0.02 0.01 0.01 0.01 0.02 0.03 0.03 0.03 0.04 0.04 0.04 0.04 0.04 0.04 0.04 0.06 0.07 0.06 0.04 0.04 0.05 0.05 0.06 0.07 0.09 0.10 0.12 0.14 0.17 0.19
0.09 0.09 0.06 0.06 0.05 0.03 0.02 0.01 0.01 0.01 0.00 0.00 0.00 0.01 0.02 0.01 0.01 0.01 0.01 0.02 0.03 0.03 0.03 0.04 0.05 0.05 0.05 0.05 0.05 0.06 0.07 0.07 0.06 0.04 0.05 0.06 0.07 0.09 0.09 0.07 0.05 0.05 0.07 0.10
0.04 0.06 0.07 0.05 0.03 0.02 0.01 0.01 0.01 0.01 0.00 0.00 0.00 0.01 0.01 0.01 0.01 0.01 0.02 0.02 0.03 0.03 0.03 0.03 0.03 0.04 0.06 0.06 0.07 0.07 0.07 0.09 0.09 0.10 0.11 0.08 0.09 0.12 0.15 0.17 0.13 0.07 0.04 0.06
0.04 0.05 0.06 0.04 0.02 0.01 0.00 0.00 0.01 0.01 0.01 0.00 0.00 0.01 0.01 0.01 0.01 0.01 0.01 0.01 0.02 0.02 0.03 0.03 0.03 0.03 0.05 0.06 0.07 0.07 0.07 0.08 0.10 0.14 0.14 0.14 0.16 0.18 0.17 0.16 0.14 0.10 0.07 0.04
0.03 0.03 0.03 0.03 0.01 0.01 0.01 0.01 0.01 0.01 0.01 0.01 0.01 0.01 0.01 0.01 0.01 0.01 0.01 0.01 0.02 0.02 0.03 0.03 0.03 0.04 0.05 0.06 0.06 0.06 0.07 0.07 0.07 0.10 0.12 0.14 0.15 0.15 0.13 0.12 0.10 0.08 0.07 0.06
0.02 0.02 0.02 0.01 0.01 0.01 0.01 0.01 0.01 0.02 0.02 0.02 0.02 0.01 0.01 0.01 0.01 0.01 0.01 0.01 0.01 0.02 0.02 0.03 0.04 0.05 0.05 0.05 0.04 0.04 0.05 0.06 0.06 0.07 0.08 0.09 0.09 0.09 0.10 0.09 0.08 0.06 0.04 0.04
0.02 0.02 0.02 0.01 0.01 0.01 0.01 0.01 0.01 0.01 0.02 0.02 0.03 0.02 0.01 0.01 0.01 0.01 0.02 0.01 0.01 0.01 0.01 0.01 0.03 0.05 0.05 0.04 0.04 0.04 0.04 0.05 0.06 0.07 0.09 0.09 0.08 0.09 0.09 0.09 0.09 0.08 0.07 0.06
0.03 0.03 0.02 0.02 0.01 0.01 0.02 0.02 0.01 0.01 0.02 0.03 0.03 0.02 0.02 0.02 0.02 0.02 0.02 0.02 0.02 0.01 0.01 0.02 0.02 0.03 0.04 0.04 0.04 0.04 0.05 0.06 0.07 0.07 0.08 0.08 0.09 0.09 0.09 0.09 0.09 0.10 0.12 0.12
0.05 0.05 0.04 0.03 0.03 0.02 0.02 0.02 0.02 0.02 0.02 0.02 0.03 0.03 0.02 0.02 0.02 0.01 0.02 0.02 0.03 0.02 0.02 0.02 0.02 0.02 0.03 0.05 0.06 0.06 0.05 0.06 0.08 0.09 0.10 0.11 0.11 0.11 0.11 0.10 0.11 0.12 0.13 0.14
0.07 0.07 0.05 0.05 0.05 0.05 0.04 0.04 0.04 0.03 0.03 0.03 0.03 0.03 0.03 0.02 0.01 0.02 0.02 0.03 0.03 0.03 0.03 0.04 0.04 0.04 0.05 0.07 0.08 0.07 0.06 0.06 0.08 0.10 0.11 0.13 0.15 0.15 0.16 0.14 0.14 0.15 0.15 0.15
0.09 0.09 0.08 0.06 0.06 0.06 0.06 0.06 0.06 0.05 0.05 0.05 0.05 0.04 0.04 0.03 0.03 0.03 0.03 0.04 0.05 0.06 0.06 0.06 0.06 0.07 0.09 0.10 0.09 0.09 0.09 0.09 0.09 0.11 0.12 0.14 0.17 0.19 0.20 0.19 0.18 0.16 0.17 0.19
0.08 0.09 0.09 0.08 0.07 0.07 0.07 0.08 0.08 0.07 0.07 0.07 0.07 0.07 0.07 0.07 0.07 0.08 0.08 0.08 0.08 0.09 0.09 0.10 0.10 0.11 0.12 0.11 0.11 0.10 0.11 0.12 0.13 0.14 0.16 0.17 0.17 0.21 0.24 0.24 0.23 0.22 0.22 0.23
0.10 0.09 0.09 0.09 0.08 0.08 0.10 0.11 0.10 0.10 0.10 0.10 0.10 0.11 0.11 0.11 0.12 0.12 0.13 0.13 0.13 0.12 0.10 0.11 0.12 0.13 0.13 0.11 0.13 0.15 0.15 0.15 0.17 0.19 0.21 0.24 0.23 0.24 0.27 0.29 0.30 0.30 0.29 0.29
0.13 0.11 0.10 0.12 0.12 0.13 0.14 0.13 0.11 0.10 0.10 0.10 0.10 0.10 0.11 0.12 0.13 0.14 0.14 0.15 0.15 0.14 0.13 0.14 0.16 0.17 0.15 0.14 0.17 0.19 0.20 0.21 0.22 0.23 0.24 0.26 0.27 0.28 0.29 0.31 0.32 0.34 0.35 0.34
0.10 0.09 0.09 0.11 0.11 0.11 0.11 0.10 0.10 0.11 0.11 0.11 0.11 0.12 0.12 0.13 0.14 0.15 0.15 0.15 0.15 0.16 0.15 0.14 0.13 0.14 0.14 0.16 0.18 0.20 0.22 0.23 0.24 0.24 0.26 0.29 0.31 0.32 0.33 0.34 0.35 0.37 0.39 0.40
0.09 0.09 0.08 0.08 0.08 0.08 0.08 0.09 0.10 0.12 0.14 0.16 0.17 0.17 0.17 0.18 0.18 0.18 0.17 0.15 0.15 0.16 0.16 0.17 0.17 0.16 0.17 0.19 0.20 0.21 0.23 0.24 0.24 0.26 0.29 0.31 0.35 0.38 0.39 0.38 0.39 0.41 0.45 0.47